Radiation Dose at Monitoring Post of Fukushima Daini Nuclear Power Station
Date,Time,MP-1(microSv/h),MP-2(microSv/h),MP-3(microSv/h),MP-4(microSv/h),MP-5(microSv/h),MP-6(microSv/h),MP-7(microSv/h),Wind Direction,Wind Velocity(m/s),Rain
2018/02/03,00:00,0.330,0.201,0.329,0.314,0.296,0.166,0.099,north,1.9,No
2018/02/03,00:10,0.330,0.200,0.330,0.314,0.296,0.166,0.099,north,1.7,No
2018/02/03,00:20,0.330,0.200,0.329,0.312,0.296,0.166,0.101,north,1.6,No
2018/02/03,00:30,0.331,0.200,0.330,0.313,0.296,0.166,0.100,north,1.9,No
2018/02/03,00:40,0.330,0.200,0.328,0.314,0.296,0.167,0.101,north,3.1,No
2018/02/03,00:50,0.331,0.201,0.330,0.313,0.296,0.166,0.100,north,2.8,No
2018/02/03,01:00,0.329,0.199,0.329,0.314,0.296,0.165,0.100,north,1.9,No
2018/02/03,01:10,0.332,0.200,0.329,0.314,0.296,0.166,0.100,north,2.1,No
2018/02/03,01:20,0.331,0.201,0.331,0.314,0.297,0.166,0.100,north,1.6,No
2018/02/03,01:30,0.332,0.201,0.328,0.315,0.295,0.167,0.100,north,2.5,No
2018/02/03,01:40,0.331,0.201,0.329,0.313,0.295,0.166,0.100,north,2.7,No
2018/02/03,01:50,0.330,0.201,0.330,0.315,0.297,0.167,0.100,north,2.3,No
2018/02/03,02:00,0.331,0.200,0.328,0.314,0.296,0.167,0.100,north,2.7,No
2018/02/03,02:10,0.332,0.201,0.330,0.313,0.297,0.166,0.100,north,2.2,No
2018/02/03,02:20,0.331,0.201,0.330,0.315,0.297,0.167,0.100,north,2.4,No
2018/02/03,02:30,0.332,0.200,0.330,0.315,0.296,0.166,0.101,northwest,1.3,No
2018/02/03,02:40,0.330,0.201,0.330,0.315,0.296,0.166,0.100,north-northwest,1.9,No
2018/02/03,02:50,0.333,0.202,0.329,0.314,0.295,0.167,0.100,north-northwest,2.0,No
2018/02/03,03:00,0.332,0.201,0.330,0.314,0.296,0.167,0.100,north-northwest,0.7,No
2018/02/03,03:10,0.332,0.201,0.329,0.314,0.296,0.166,0.100,-,CALM,No
2018/02/03,03:20,0.330,0.200,0.330,0.314,0.297,0.166,0.100,north-northeast,0.6,No
2018/02/03,03:30,0.330,0.201,0.329,0.313,0.296,0.166,0.100,-,CALM,No
2018/02/03,03:40,0.332,0.201,0.331,0.313,0.296,0.166,0.100,-,CALM,No
2018/02/03,03:50,0.331,0.201,0.330,0.315,0.295,0.166,0.100,north,1.3,No
2018/02/03,04:00,0.331,0.200,0.330,0.315,0.297,0.166,0.101,north,2.5,No
2018/02/03,04:10,0.332,0.201,0.331,0.315,0.297,0.167,0.101,north,2.9,No
2018/02/03,04:20,0.332,0.200,0.330,0.314,0.296,0.167,0.100,north,1.9,No
2018/02/03,04:30,0.330,0.201,0.330,0.315,0.296,0.167,0.100,-,CALM,No
2018/02/03,04:40,0.332,0.201,0.328,0.315,0.296,0.166,0.101,-,CALM,No
2018/02/03,04:50,0.332,0.201,0.330,0.314,0.297,0.166,0.100,-,CALM,No
2018/02/03,05:00,0.331,0.201,0.330,0.314,0.298,0.166,0.101,-,CALM,No
2018/02/03,05:10,0.332,0.201,0.331,0.314,0.295,0.166,0.101,southeast,0.8,No
2018/02/03,05:20,0.331,0.201,0.329,0.315,0.296,0.166,0.100,-,CALM,No
2018/02/03,05:30,0.331,0.201,0.330,0.314,0.297,0.166,0.100,-,CALM,No
2018/02/03,05:40,0.331,0.201,0.329,0.314,0.297,0.167,0.100,-,CALM,No
2018/02/03,05:50,0.331,0.200,0.330,0.314,0.296,0.167,0.101,-,CALM,No
2018/02/03,06:00,0.331,0.201,0.331,0.314,0.296,0.167,0.101,-,CALM,No
2018/02/03,06:10,0.331,0.201,0.330,0.316,0.296,0.167,0.100,north,1.2,No
2018/02/03,06:20,0.331,0.201,0.331,0.315,0.297,0.167,0.100,north,2.3,No
2018/02/03,06:30,0.333,0.201,0.330,0.315,0.296,0.167,0.101,north,3.9,No
2018/02/03,06:40,0.331,0.201,0.330,0.315,0.297,0.167,0.101,north-northwest,4.3,No
2018/02/03,06:50,0.333,0.201,0.331,0.315,0.296,0.167,0.101,north,3.5,No
2018/02/03,07:00,0.331,0.202,0.331,0.313,0.297,0.166,0.100,north,2.2,No
2018/02/03,07:10,0.333,0.202,0.331,0.313,0.295,0.167,0.100,north,2.8,No
2018/02/03,07:20,0.331,0.200,0.329,0.315,0.295,0.166,0.100,north,2.9,No
2018/02/03,07:30,0.331,0.200,0.331,0.315,0.296,0.167,0.100,north,2.8,No
2018/02/03,07:40,0.332,0.201,0.329,0.315,0.295,0.166,0.100,north,1.3,No
2018/02/03,07:50,0.330,0.200,0.330,0.314,0.296,0.167,0.100,north,1.6,No
2018/02/03,08:00,0.332,0.202,0.331,0.316,0.296,0.167,0.100,north,2.7,No
2018/02/03,08:10,0.331,0.200,0.331,0.314,0.295,0.167,0.100,north-northwest,1.2,No
2018/02/03,08:20,0.332,0.200,0.330,0.315,0.295,0.167,0.100,north-northwest,1.9,No
2018/02/03,08:30,0.330,0.199,0.331,0.313,0.297,0.167,0.100,northwest,1.3,No
2018/02/03,08:40,0.331,0.201,0.330,0.314,0.297,0.167,0.100,northwest,1.7,No
2018/02/03,08:50,0.330,0.201,0.331,0.313,0.295,0.167,0.099,north-northwest,2.2,No
2018/02/03,09:00,0.332,0.201,0.330,0.315,0.296,0.166,0.101,north-northwest,1.5,No
2018/02/03,09:10,0.333,0.200,0.329,0.314,0.296,0.166,0.099,north-northwest,2.1,No
2018/02/03,09:20,0.331,0.200,0.331,0.314,0.296,0.166,0.100,north,2.5,No
2018/02/03,09:30,0.331,0.201,0.330,0.313,0.296,0.165,0.100,north,2.6,No
2018/02/03,09:40,0.332,0.200,0.331,0.313,0.297,0.166,0.100,north,1.8,No
2018/02/03,09:50,0.331,0.200,0.329,0.313,0.298,0.167,0.100,north,2.3,No
2018/02/03,10:00,0.331,0.201,0.329,0.314,0.296,0.167,0.100,-,CALM,No
2018/02/03,10:10,0.332,0.200,0.330,0.315,0.296,0.167,0.100,north,0.8,No
2018/02/03,10:20,0.331,0.201,0.330,0.314,0.297,0.167,0.100,northeast,0.6,No
2018/02/03,10:30,0.331,0.200,0.330,0.316,0.297,0.167,0.100,east-northeast,1.0,No
2018/02/03,10:40,0.331,0.202,0.331,0.313,0.299,0.168,0.101,east-southeast,1.5,No
2018/02/03,10:50,0.330,0.201,0.330,0.314,0.299,0.166,0.100,southeast,0.7,No
2018/02/03,11:00,0.330,0.201,0.330,0.315,0.298,0.167,0.100,-,CALM,No
2018/02/03,11:10,0.331,0.202,0.330,0.314,0.298,0.166,0.101,east,1.5,No
2018/02/03,11:20,0.331,0.202,0.330,0.314,0.299,0.167,0.101,east,1.8,No
2018/02/03,11:30,0.332,0.203,0.331,0.315,0.297,0.167,0.101,east-northeast,2.1,No
2018/02/03,11:40,0.330,0.201,0.329,0.315,0.299,0.167,0.101,northeast,1.7,No
2018/02/03,11:50,0.330,0.200,0.331,0.314,0.298,0.166,0.101,east-northeast,1.9,No
2018/02/03,12:00,0.330,0.201,0.330,0.314,0.297,0.167,0.100,east-northeast,2.1,No
2018/02/03,12:10,0.332,0.201,0.329,0.314,0.299,0.167,0.099,east-northeast,1.6,No
2018/02/03,12:20,0.330,0.201,0.330,0.315,0.296,0.167,0.100,east,1.4,No
2018/02/03,12:30,0.328,0.200,0.328,0.315,0.298,0.167,0.100,northeast,1.6,No
2018/02/03,12:40,0.330,0.202,0.328,0.313,0.297,0.167,0.100,northeast,2.0,No
2018/02/03,12:50,0.329,0.201,0.328,0.313,0.297,0.167,0.100,northeast,1.7,No
2018/02/03,13:00,0.330,0.201,0.328,0.314,0.300,0.167,0.101,east-northeast,1.6,No
2018/02/03,13:10,0.330,0.200,0.329,0.314,0.298,0.167,0.100,east,1.1,No
2018/02/03,13:20,0.331,0.201,0.330,0.313,0.298,0.167,0.100,east-southeast,1.5,No
2018/02/03,13:30,0.331,0.202,0.330,0.315,0.298,0.167,0.100,east,1.8,No
2018/02/03,13:40,0.332,0.201,0.329,0.314,0.299,0.167,0.100,east-southeast,1.4,No
2018/02/03,13:50,0.331,0.200,0.330,0.315,0.299,0.167,0.100,east-southeast,1.3,No
2018/02/03,14:00,0.332,0.201,0.329,0.314,0.299,0.167,0.100,east,1.1,No
2018/02/03,14:10,0.331,0.201,0.331,0.314,0.298,0.167,0.101,-,CALM,No
2018/02/03,14:20,0.331,0.202,0.329,0.315,0.299,0.166,0.100,southeast,1.0,No
2018/02/03,14:30,0.332,0.201,0.328,0.314,0.298,0.166,0.099,east,0.9,No
2018/02/03,14:40,0.331,0.201,0.331,0.314,0.298,0.167,0.100,southeast,1.2,No
2018/02/03,14:50,0.331,0.201,0.331,0.316,0.298,0.167,0.100,southeast,0.6,No
2018/02/03,15:00,0.332,0.201,0.330,0.315,0.298,0.166,0.100,southeast,1.0,No
2018/02/03,15:10,0.330,0.201,0.330,0.315,0.299,0.167,0.100,south,0.8,No
2018/02/03,15:20,0.330,0.201,0.330,0.314,0.298,0.166,0.100,southeast,0.7,No
2018/02/03,15:30,0.331,0.201,0.330,0.315,0.298,0.165,0.100,-,CALM,No
2018/02/03,15:40,0.332,0.202,0.329,0.317,0.297,0.167,0.101,east,0.7,No
2018/02/03,15:50,0.330,0.200,0.331,0.313,0.298,0.166,0.099,east-southeast,0.6,No
2018/02/03,16:00,0.331,0.201,0.329,0.315,0.298,0.167,0.100,-,CALM,No
2018/02/03,16:10,0.332,0.200,0.329,0.314,0.298,0.167,0.099,-,CALM,No
2018/02/03,16:20,0.332,0.201,0.330,0.316,0.298,0.166,0.099,southwest,0.9,No
2018/02/03,16:30,0.333,0.200,0.331,0.314,0.296,0.166,0.100,-,CALM,No
2018/02/03,16:40,0.332,0.201,0.330,0.314,0.298,0.167,0.099,-,CALM,No
2018/02/03,16:50,0.330,0.201,0.331,0.314,0.299,0.166,0.100,northwest,0.7,No
2018/02/03,17:00,0.331,0.201,0.332,0.314,0.298,0.167,0.101,-,CALM,No
2018/02/03,17:10,0.332,0.201,0.331,0.314,0.299,0.166,0.100,-,CALM,No
2018/02/03,17:20,0.331,0.202,0.329,0.315,0.298,0.167,0.100,-,CALM,No
2018/02/03,17:30,0.331,0.202,0.331,0.316,0.299,0.167,0.100,southwest,1.3,No
2018/02/03,17:40,0.332,0.200,0.330,0.314,0.299,0.166,0.100,southwest,0.7,No
2018/02/03,17:50,0.333,0.202,0.330,0.314,0.298,0.166,0.101,-,CALM,No
2018/02/03,18:00,0.331,0.202,0.330,0.316,0.299,0.166,0.100,-,CALM,No
2018/02/03,18:10,0.332,0.202,0.332,0.314,0.299,0.167,0.100,north,1.1,No
2018/02/03,18:20,0.332,0.202,0.332,0.315,0.298,0.167,0.100,north,2.7,No
2018/02/03,18:30,0.332,0.201,0.330,0.316,0.298,0.167,0.100,north-northwest,6.6,No
2018/02/03,18:40,0.331,0.201,0.332,0.315,0.299,0.167,0.099,northwest,8.1,No
2018/02/03,18:50,0.332,0.202,0.330,0.314,0.298,0.166,0.100,north-northwest,6.9,No
2018/02/03,19:00,0.333,0.201,0.330,0.315,0.298,0.167,0.100,northwest,7.5,No
2018/02/03,19:10,0.332,0.201,0.330,0.315,0.300,0.167,0.101,west-northwest,7.8,No
2018/02/03,19:20,0.332,0.202,0.331,0.315,0.299,0.166,0.100,northwest,7.8,No
2018/02/03,19:30,0.331,0.202,0.330,0.315,0.299,0.167,0.100,north-northwest,7.7,No
2018/02/03,19:40,0.332,0.201,0.331,0.316,0.298,0.167,0.100,north-northwest,7.3,No
2018/02/03,19:50,0.332,0.202,0.332,0.316,0.299,0.167,0.101,north-northwest,7.9,No
2018/02/03,20:00,0.334,0.201,0.331,0.315,0.300,0.166,0.099,north-northwest,6.8,No
2018/02/03,20:10,0.332,0.202,0.329,0.317,0.300,0.167,0.101,north,6.3,No
2018/02/03,20:20,0.331,0.202,0.331,0.316,0.299,0.166,0.100,north-northwest,6.2,No
2018/02/03,20:30,0.332,0.201,0.332,0.314,0.299,0.166,0.100,north-northwest,4.8,No
2018/02/03,20:40,0.331,0.201,0.331,0.315,0.300,0.167,0.101,northwest,5.4,No
2018/02/03,20:50,0.332,0.203,0.330,0.315,0.299,0.167,0.101,northwest,4.8,No
2018/02/03,21:00,0.331,0.203,0.329,0.316,0.300,0.167,0.101,northwest,3.7,No
2018/02/03,21:10,0.333,0.201,0.332,0.316,0.299,0.168,0.101,north-northwest,5.3,No
2018/02/03,21:20,0.333,0.202,0.331,0.315,0.299,0.167,0.100,north,6.6,No
2018/02/03,21:30,0.331,0.203,0.330,0.315,0.300,0.168,0.100,north-northwest,6.1,No
2018/02/03,21:40,0.333,0.200,0.331,0.316,0.299,0.167,0.100,north,5.1,No
2018/02/03,21:50,0.332,0.202,0.331,0.315,0.299,0.167,0.100,north,3.9,No
2018/02/03,22:00,0.333,0.201,0.332,0.314,0.300,0.166,0.100,north-northwest,2.5,No
2018/02/03,22:10,0.332,0.202,0.330,0.316,0.300,0.166,0.100,north-northwest,3.3,No
2018/02/03,22:20,0.333,0.202,0.330,0.316,0.299,0.167,0.100,northwest,4.3,No
2018/02/03,22:30,0.333,0.202,0.332,0.314,0.300,0.167,0.100,west-northwest,3.7,No
2018/02/03,22:40,0.334,0.202,0.332,0.316,0.299,0.166,0.100,west,4.7,No
2018/02/03,22:50,0.334,0.202,0.333,0.315,0.300,0.166,0.100,west-northwest,5.2,No
2018/02/03,23:00,0.331,0.201,0.331,0.316,0.298,0.167,0.100,west-northwest,6.4,No
2018/02/03,23:10,0.332,0.202,0.332,0.316,0.299,0.167,0.100,west-northwest,8.2,No
2018/02/03,23:20,0.333,0.201,0.332,0.315,0.299,0.167,0.101,northwest,8.2,No
2018/02/03,23:30,0.333,0.202,0.333,0.316,0.299,0.168,0.100,west-northwest,8.7,No
2018/02/03,23:40,0.334,0.203,0.331,0.315,0.301,0.167,0.099,west-northwest,8.1,No
2018/02/03,23:50,0.333,0.202,0.332,0.316,0.300,0.167,0.101,northwest,6.8,No
